COA1261 KEWR-KBNA

Flight info

Callsign COA1261
Flight time 1h 46m
Altitude 34000
Route PARKE J6 LRP/N0489F320 J6 HVQ Q68 YOCKY CUTRR PASLY5
Aircraft R722/M-DFGLORVWY/S

Departure

Time 2026-05-05 19:07
Airport Newark Liberty International Airport (KEWR)

Arrival

Time 2026-05-05 20:54
Airport Nashville International Airport (KBNA)
Time Latitude Longitude Altitude Speed Heading
2026-05-05 18:03 40.69604 -74.17354 23 ft 0 kts 143°
2026-05-05 18:59 40.69608 -74.17357 23 ft 4 kts 142°
2026-05-05 18:59 40.69625 -74.17383 34 ft 4 kts 115°
2026-05-05 18:59 40.69627 -74.17413 26 ft 4 kts 70°
2026-05-05 19:00 40.69618 -74.17429 25 ft 0 kts 44°
2026-05-05 19:02 40.69636 -74.17407 24 ft 6 kts 44°
2026-05-05 19:02 40.69671 -74.17362 24 ft 7 kts 42°
2026-05-05 19:02 40.69702 -74.17325 25 ft 6 kts 44°
2026-05-05 19:03 40.69721 -74.17266 25 ft 7 kts 60°
2026-05-05 19:03 40.69760 -74.17195 27 ft 15 kts 53°
2026-05-05 19:03 40.69803 -74.17104 24 ft 4 kts 112°
2026-05-05 19:03 40.69742 -74.17061 23 ft 16 kts 159°
2026-05-05 19:04 40.69633 -74.17020 23 ft 12 kts 147°
2026-05-05 19:04 40.69639 -74.16930 22 ft 19 kts 71°
2026-05-05 19:04 40.69685 -74.16760 22 ft 18 kts 62°
2026-05-05 19:04 40.69775 -74.16681 19 ft 22 kts 26°
2026-05-05 19:05 40.69945 -74.16577 19 ft 30 kts 26°
2026-05-05 19:05 40.70096 -74.16485 20 ft 16 kts 16°
2026-05-05 19:05 40.70210 -74.16466 22 ft 17 kts
2026-05-05 19:05 40.70284 -74.16380 22 ft 16 kts 86°
2026-05-05 19:06 40.70318 -74.16267 23 ft 8 kts 71°
2026-05-05 19:06 40.70307 -74.16208 24 ft 7 kts 149°
2026-05-05 19:06 40.70257 -74.16220 22 ft 0 kts 208°
2026-05-05 19:07 40.70074 -74.16333 20 ft 70 kts 206°
2026-05-05 19:07 40.69418 -74.16745 30 ft 134 kts 203°
2026-05-05 19:07 40.68490 -74.17336 402 ft 161 kts 205°
2026-05-05 19:07 40.67460 -74.18076 1128 ft 176 kts 211°
2026-05-05 19:08 40.66264 -74.18876 1778 ft 209 kts 204°
2026-05-05 19:08 40.64817 -74.19534 2711 ft 225 kts 196°
2026-05-05 19:08 40.63771 -74.19784 3799 ft 216 kts 191°
2026-05-05 19:08 40.62282 -74.20131 4977 ft 225 kts 198°
2026-05-05 19:09 40.60788 -74.21037 5686 ft 248 kts 214°
2026-05-05 19:09 40.59504 -74.22511 6825 ft 246 kts 231°
2026-05-05 19:09 40.58665 -74.24361 8340 ft 234 kts 252°
2026-05-05 19:09 40.58488 -74.26500 9503 ft 240 kts 271°
2026-05-05 19:10 40.58832 -74.28663 10633 ft 241 kts 278°
2026-05-05 19:10 40.59127 -74.30717 12046 ft 229 kts 273°
2026-05-05 19:10 40.59147 -74.32974 12215 ft 263 kts 264°
2026-05-05 19:10 40.59007 -74.35513 12551 ft 289 kts 266°
2026-05-05 19:11 40.58974 -74.38132 13780 ft 285 kts 269°
2026-05-05 19:11 40.58979 -74.40763 14765 ft 280 kts 268°
2026-05-05 19:11 40.58944 -74.43060 16919 ft 238 kts 267°
2026-05-05 19:11 40.58890 -74.45366 17158 ft 269 kts 267°
2026-05-05 19:12 40.58834 -74.47921 17493 ft 291 kts 268°
2026-05-05 19:12 40.58783 -74.50691 17854 ft 313 kts 268°
2026-05-05 19:12 40.58739 -74.53131 18160 ft 331 kts 268°
2026-05-05 19:12 40.58677 -74.56220 18792 ft 338 kts 268°
2026-05-05 19:13 40.58616 -74.59158 19610 ft 342 kts 268°
2026-05-05 19:13 40.58553 -74.62272 20333 ft 348 kts 268°
2026-05-05 19:13 40.58490 -74.65458 21139 ft 352 kts 268°
2026-05-05 19:13 40.58422 -74.68714 21947 ft 356 kts 268°
2026-05-05 19:14 40.58360 -74.71994 22705 ft 361 kts 270°
2026-05-05 19:14 40.58695 -74.75277 23426 ft 367 kts 284°
2026-05-05 19:14 40.59488 -74.78489 23731 ft 382 kts 288°
2026-05-05 19:14 40.60549 -74.81809 23848 ft 394 kts 292°
2026-05-05 19:15 40.61653 -74.85120 24350 ft 395 kts 290°
2026-05-05 19:15 40.62636 -74.88500 24932 ft 397 kts 288°
2026-05-05 19:15 40.63600 -74.91925 25529 ft 400 kts 289°
2026-05-05 19:15 40.64633 -74.95343 26101 ft 404 kts 290°
2026-05-05 19:16 40.65702 -74.98802 26709 ft 408 kts 290°
2026-05-05 19:16 40.66617 -75.02341 27336 ft 410 kts 281°
2026-05-05 19:16 40.66919 -75.06076 27989 ft 413 kts 270°
2026-05-05 19:16 40.66591 -75.09860 28636 ft 418 kts 258°
2026-05-05 19:17 40.65618 -75.13497 29231 ft 426 kts 247°
2026-05-05 19:17 40.64246 -75.16947 29815 ft 432 kts 242°
2026-05-05 19:17 40.62604 -75.20360 30342 ft 438 kts 240°
2026-05-05 19:17 40.60925 -75.23712 30861 ft 441 kts 242°
2026-05-05 19:18 40.59351 -75.27202 31418 ft 443 kts 244°
2026-05-05 19:18 40.57822 -75.30752 31961 ft 447 kts 244°
2026-05-05 19:18 40.56231 -75.34219 32516 ft 452 kts 243°
2026-05-05 19:18 40.54561 -75.37731 33054 ft 455 kts 243°
2026-05-05 19:19 40.52913 -75.41304 33601 ft 457 kts 244°
2026-05-05 19:19 40.51288 -75.44918 33864 ft 462 kts 245°
2026-05-05 19:19 40.48267 -75.51455 33853 ft 463 kts 244°
2026-05-05 19:20 40.45126 -75.58251 33855 ft 461 kts 244°
2026-05-05 19:20 40.41802 -75.65452 33877 ft 461 kts 244°
2026-05-05 19:21 40.38659 -75.72213 33852 ft 459 kts 244°
2026-05-05 19:21 40.35460 -75.79105 33847 ft 459 kts 244°
2026-05-05 19:22 40.32133 -75.86237 33838 ft 458 kts 244°
2026-05-05 19:22 40.28816 -75.93352 33843 ft 458 kts 244°
2026-05-05 19:23 40.25485 -76.00465 33843 ft 458 kts 244°
2026-05-05 19:23 40.22179 -76.07522 33844 ft 457 kts 244°
2026-05-05 19:24 40.18845 -76.14608 33853 ft 457 kts 244°
2026-05-05 19:24 40.15515 -76.21680 33851 ft 457 kts 244°
2026-05-05 19:25 40.12177 -76.28747 33857 ft 456 kts 244°
2026-05-05 19:25 40.08903 -76.35836 33845 ft 455 kts 246°
2026-05-05 19:26 40.05840 -76.42501 33847 ft 455 kts 245°
2026-05-05 19:26 40.02617 -76.49443 33852 ft 454 kts 245°
2026-05-05 19:27 39.99360 -76.56490 33847 ft 454 kts 245°
2026-05-05 19:27 39.96083 -76.63528 33862 ft 453 kts 245°
2026-05-05 19:28 39.92820 -76.70546 33871 ft 453 kts 245°
2026-05-05 19:28 39.89548 -76.77552 33871 ft 452 kts 245°
2026-05-05 19:29 39.86279 -76.84544 33870 ft 451 kts 245°
2026-05-05 19:29 39.83008 -76.91518 33875 ft 451 kts 245°
2026-05-05 19:30 39.79744 -76.98470 33883 ft 450 kts 245°
2026-05-05 19:30 39.76493 -77.05370 33886 ft 450 kts 245°
2026-05-05 19:31 39.73433 -77.11861 33887 ft 450 kts 245°
2026-05-05 19:31 39.70159 -77.18775 33887 ft 448 kts 245°
2026-05-05 19:32 39.67118 -77.25200 33882 ft 448 kts 245°
2026-05-05 19:32 39.63853 -77.32071 33893 ft 447 kts 245°
2026-05-05 19:33 39.60877 -77.38329 33901 ft 447 kts 245°
2026-05-05 19:33 39.57612 -77.45170 33892 ft 446 kts 245°
2026-05-05 19:34 39.54351 -77.51996 33898 ft 445 kts 245°
2026-05-05 19:35 39.49457 -77.62203 33892 ft 444 kts 245°
2026-05-05 19:35 39.46199 -77.68992 33857 ft 444 kts 245°
2026-05-05 19:36 39.42953 -77.75725 33851 ft 443 kts 245°
2026-05-05 19:36 39.39678 -77.82518 33849 ft 443 kts 245°
2026-05-05 19:37 39.36637 -77.89401 33855 ft 436 kts 251°
2026-05-05 19:37 39.34039 -77.96422 33854 ft 438 kts 249°
2026-05-05 19:38 39.31168 -78.03355 33854 ft 437 kts 250°
2026-05-05 19:38 39.28448 -78.10361 33865 ft 437 kts 250°
2026-05-05 19:39 39.25633 -78.17311 33860 ft 436 kts 250°
2026-05-05 19:39 39.22868 -78.24276 33863 ft 436 kts 250°
2026-05-05 19:40 39.20544 -78.30052 33857 ft 436 kts 250°
2026-05-05 19:40 39.17887 -78.36665 33856 ft 435 kts 250°
2026-05-05 19:41 39.15101 -78.43592 33868 ft 436 kts 250°
2026-05-05 19:41 39.12302 -78.50518 33863 ft 436 kts 250°
2026-05-05 19:42 39.09508 -78.57434 33864 ft 436 kts 249°
2026-05-05 19:42 39.06706 -78.64337 33860 ft 434 kts 249°
2026-05-05 19:43 39.04031 -78.70931 33871 ft 435 kts 249°
2026-05-05 19:43 39.01232 -78.77801 33867 ft 436 kts 249°
2026-05-05 19:44 38.98418 -78.84700 33879 ft 435 kts 249°
2026-05-05 19:44 38.95896 -78.90869 33882 ft 435 kts 249°
2026-05-05 19:45 38.93075 -78.97744 33891 ft 434 kts 249°
2026-05-05 19:45 38.90263 -79.04593 33910 ft 432 kts 249°
2026-05-05 19:46 38.87438 -79.11447 33904 ft 435 kts 249°
2026-05-05 19:46 38.85067 -79.17210 33901 ft 434 kts 249°
2026-05-05 19:47 38.83234 -79.23652 33913 ft 423 kts 261°
2026-05-05 19:47 38.82074 -79.30949 33894 ft 422 kts 263°
2026-05-05 19:48 38.80684 -79.38261 33909 ft 423 kts 261°
2026-05-05 19:48 38.79396 -79.45602 33907 ft 420 kts 262°
2026-05-05 19:49 38.78053 -79.52918 33941 ft 422 kts 262°
2026-05-05 19:49 38.76725 -79.60247 33934 ft 422 kts 262°
2026-05-05 19:50 38.75395 -79.67528 33936 ft 423 kts 262°
2026-05-05 19:50 38.74047 -79.74872 33945 ft 422 kts 262°
2026-05-05 19:51 38.72701 -79.82188 33940 ft 422 kts 261°
2026-05-05 19:51 38.71351 -79.89500 33939 ft 422 kts 261°
2026-05-05 19:52 38.69992 -79.96809 33937 ft 422 kts 261°
2026-05-05 19:52 38.68639 -80.04111 33943 ft 421 kts 261°
2026-05-05 19:53 38.67271 -80.11407 33934 ft 421 kts 261°
2026-05-05 19:53 38.65988 -80.18268 33926 ft 421 kts 261°
2026-05-05 19:54 38.64641 -80.25412 33920 ft 420 kts 261°
2026-05-05 19:54 38.63279 -80.32637 33910 ft 420 kts 261°
2026-05-05 19:55 38.61899 -80.39906 33911 ft 420 kts 261°
2026-05-05 19:55 38.60519 -80.47163 33900 ft 420 kts 261°
2026-05-05 19:56 38.59131 -80.54426 33887 ft 420 kts 261°
2026-05-05 19:56 38.57743 -80.61680 33889 ft 420 kts 261°
2026-05-05 19:57 38.56346 -80.68937 33892 ft 421 kts 261°
2026-05-05 19:57 38.54944 -80.76202 33891 ft 420 kts 261°
2026-05-05 19:58 38.53540 -80.83441 33886 ft 420 kts 261°
2026-05-05 19:58 38.52133 -80.90702 33889 ft 421 kts 260°
2026-05-05 19:59 38.50718 -80.97937 33890 ft 421 kts 260°
2026-05-05 19:59 38.49398 -81.04683 33885 ft 421 kts 260°
2026-05-05 20:00 38.47946 -81.12072 33891 ft 421 kts 260°
2026-05-05 20:00 38.46566 -81.19073 33895 ft 421 kts 260°
2026-05-05 20:01 38.45135 -81.26310 33901 ft 421 kts 260°
2026-05-05 20:01 38.43696 -81.33559 33909 ft 421 kts 260°
2026-05-05 20:02 38.42249 -81.40817 33917 ft 422 kts 260°
2026-05-05 20:02 38.40800 -81.48069 33922 ft 422 kts 260°
2026-05-05 20:03 38.39344 -81.55327 33922 ft 422 kts 260°
2026-05-05 20:03 38.37893 -81.62536 33913 ft 423 kts 260°
2026-05-05 20:04 38.36426 -81.69796 33920 ft 423 kts 260°
2026-05-05 20:04 38.35018 -81.76712 33911 ft 423 kts 259°
2026-05-05 20:05 38.33089 -81.83847 33912 ft 428 kts 253°
2026-05-05 20:05 38.31043 -81.90931 33915 ft 426 kts 256°
2026-05-05 20:06 38.29084 -81.98100 33928 ft 428 kts 255°
2026-05-05 20:06 38.27212 -82.04608 33923 ft 427 kts 256°
2026-05-05 20:07 38.25265 -82.11635 33927 ft 428 kts 255°
2026-05-05 20:07 38.23234 -82.18747 33918 ft 428 kts 255°
2026-05-05 20:08 38.21238 -82.25831 33917 ft 428 kts 255°
2026-05-05 20:08 38.19208 -82.32950 33914 ft 428 kts 255°
2026-05-05 20:09 38.17183 -82.40067 33910 ft 428 kts 255°
2026-05-05 20:09 38.15145 -82.47193 33912 ft 429 kts 255°
2026-05-05 20:10 38.13107 -82.54305 33913 ft 429 kts 255°
2026-05-05 20:10 38.11064 -82.61416 33909 ft 428 kts 255°
2026-05-05 20:11 38.09018 -82.68516 33925 ft 428 kts 255°
2026-05-05 20:11 38.06967 -82.75618 33927 ft 428 kts 255°
2026-05-05 20:12 38.04913 -82.82711 33928 ft 428 kts 255°
2026-05-05 20:12 38.02865 -82.89763 33927 ft 428 kts 256°
2026-05-05 20:13 38.00834 -82.96740 33918 ft 428 kts 256°
2026-05-05 20:13 37.98765 -83.03824 33929 ft 428 kts 256°
2026-05-05 20:14 37.96757 -83.10688 33924 ft 428 kts 256°
2026-05-05 20:14 37.94680 -83.17766 33924 ft 428 kts 256°
2026-05-05 20:15 37.92597 -83.24847 33922 ft 429 kts 256°
2026-05-05 20:15 37.90510 -83.31926 33930 ft 429 kts 256°
2026-05-05 20:16 37.88418 -83.38998 33928 ft 429 kts 255°
2026-05-05 20:16 37.86322 -83.46067 33925 ft 429 kts 255°
2026-05-05 20:17 37.84224 -83.53129 33922 ft 429 kts 255°
2026-05-05 20:17 37.82116 -83.60199 33920 ft 429 kts 255°
2026-05-05 20:18 37.80020 -83.67215 33915 ft 429 kts 255°
2026-05-05 20:18 37.77907 -83.74271 33913 ft 429 kts 255°
2026-05-05 20:19 37.75790 -83.81319 33920 ft 429 kts 255°
2026-05-05 20:19 37.73689 -83.88302 33917 ft 429 kts 255°
2026-05-05 20:20 37.71559 -83.95348 33922 ft 429 kts 255°
2026-05-05 20:20 37.69517 -84.02109 33930 ft 429 kts 255°
2026-05-05 20:21 37.67372 -84.09174 33936 ft 430 kts 255°
2026-05-05 20:21 37.64945 -84.15527 33939 ft 444 kts 242°
2026-05-05 20:21 37.62822 -84.18573 33957 ft 455 kts 234°
2026-05-05 20:22 37.60477 -84.21281 33960 ft 461 kts 229°
2026-05-05 20:22 37.56063 -84.25740 33956 ft 462 kts 229°
2026-05-05 20:23 37.51316 -84.31113 33946 ft 459 kts 231°
2026-05-05 20:23 37.46421 -84.36353 33941 ft 462 kts 229°
2026-05-05 20:24 37.41597 -84.41653 33934 ft 460 kts 230°
2026-05-05 20:24 37.36728 -84.46920 33926 ft 461 kts 229°
2026-05-05 20:25 37.31888 -84.52178 33915 ft 460 kts 230°
2026-05-05 20:25 37.27035 -84.57435 33910 ft 460 kts 229°
2026-05-05 20:26 37.22188 -84.62667 33918 ft 460 kts 230°
2026-05-05 20:26 37.17346 -84.67899 33911 ft 460 kts 229°
2026-05-05 20:27 37.12485 -84.73128 33911 ft 459 kts 229°
2026-05-05 20:27 37.07675 -84.78307 33315 ft 460 kts 229°
2026-05-05 20:27 37.05280 -84.80872 32708 ft 455 kts 229°
2026-05-05 20:28 37.03005 -84.83538 32150 ft 440 kts 237°
2026-05-05 20:28 37.01208 -84.86558 31597 ft 428 kts 243°
2026-05-05 20:28 36.99643 -84.89692 31030 ft 421 kts 246°
2026-05-05 20:28 36.98218 -84.92870 30483 ft 417 kts 246°
2026-05-05 20:29 36.96803 -84.95879 29947 ft 416 kts 244°
2026-05-05 20:29 36.95347 -84.98756 29396 ft 413 kts 243°
2026-05-05 20:29 36.93803 -85.01840 28838 ft 410 kts 244°
2026-05-05 20:29 36.92344 -85.04896 28303 ft 407 kts 244°
2026-05-05 20:30 36.90902 -85.07912 27762 ft 405 kts 244°
2026-05-05 20:30 36.89425 -85.10907 27226 ft 403 kts 243°
2026-05-05 20:30 36.87957 -85.13875 26698 ft 400 kts 243°
2026-05-05 20:30 36.86999 -85.15837 26348 ft 399 kts 243°
2026-05-05 20:31 36.85188 -85.19568 25686 ft 395 kts 243°
2026-05-05 20:31 36.83756 -85.22488 25169 ft 393 kts 243°
2026-05-05 20:31 36.82812 -85.24406 24822 ft 391 kts 243°
2026-05-05 20:31 36.81395 -85.27291 24301 ft 390 kts 242°
2026-05-05 20:32 36.79984 -85.30170 23789 ft 387 kts 242°
2026-05-05 20:32 36.78581 -85.33028 23242 ft 384 kts 242°
2026-05-05 20:32 36.77186 -85.35860 22719 ft 381 kts 242°
2026-05-05 20:32 36.75806 -85.38659 22221 ft 378 kts 242°
2026-05-05 20:33 36.74445 -85.41442 21857 ft 374 kts 242°
2026-05-05 20:33 36.73130 -85.44233 21627 ft 373 kts 243°
2026-05-05 20:33 36.71842 -85.47030 21416 ft 372 kts 243°
2026-05-05 20:33 36.70536 -85.49818 21202 ft 372 kts 243°
2026-05-05 20:34 36.69216 -85.52591 20991 ft 371 kts 243°
2026-05-05 20:34 36.67908 -85.55355 20773 ft 371 kts 243°
2026-05-05 20:34 36.66614 -85.58124 20557 ft 369 kts 243°
2026-05-05 20:34 36.65317 -85.60883 20352 ft 368 kts 243°
2026-05-05 20:35 36.64017 -85.63614 20136 ft 366 kts 243°
2026-05-05 20:35 36.62720 -85.66349 19926 ft 366 kts 243°
2026-05-05 20:35 36.61435 -85.69079 19718 ft 365 kts 243°
2026-05-05 20:35 36.60177 -85.71745 19506 ft 364 kts 243°
2026-05-05 20:36 36.58887 -85.74460 19301 ft 363 kts 243°
2026-05-05 20:36 36.57622 -85.77123 19097 ft 362 kts 243°
2026-05-05 20:36 36.56345 -85.79817 18639 ft 362 kts 243°
2026-05-05 20:36 36.55068 -85.82505 17644 ft 356 kts 243°
2026-05-05 20:37 36.53818 -85.85132 16621 ft 350 kts 242°
2026-05-05 20:37 36.52591 -85.87717 15621 ft 344 kts 243°
2026-05-05 20:37 36.51384 -85.90253 14638 ft 338 kts 242°
2026-05-05 20:37 36.50196 -85.92743 13674 ft 331 kts 242°
2026-05-05 20:38 36.49035 -85.95178 12671 ft 324 kts 242°
2026-05-05 20:38 36.47900 -85.97563 11911 ft 318 kts 242°
2026-05-05 20:38 36.46778 -85.99913 11422 ft 314 kts 241°
2026-05-05 20:38 36.45667 -86.02240 10976 ft 312 kts 241°
2026-05-05 20:39 36.44567 -86.04542 10555 ft 310 kts 240°
2026-05-05 20:39 36.43467 -86.06838 10137 ft 303 kts 240°
2026-05-05 20:39 36.42451 -86.08957 9737 ft 278 kts 240°
2026-05-05 20:39 36.41486 -86.10965 9329 ft 257 kts 240°
2026-05-05 20:40 36.40600 -86.12822 9030 ft 251 kts 240°
2026-05-05 20:40 36.39849 -86.14750 8727 ft 249 kts 253°
2026-05-05 20:40 36.39687 -86.16905 8399 ft 255 kts 270°
2026-05-05 20:40 36.40040 -86.19076 8063 ft 259 kts 281°
2026-05-05 20:41 36.40648 -86.21201 7710 ft 261 kts 284°
2026-05-05 20:41 36.41289 -86.23304 7354 ft 257 kts 284°
2026-05-05 20:41 36.41915 -86.25327 7006 ft 245 kts 284°
2026-05-05 20:41 36.42525 -86.27249 6676 ft 234 kts 284°
2026-05-05 20:42 36.43127 -86.29102 6345 ft 230 kts 284°
2026-05-05 20:42 36.43734 -86.30950 6107 ft 230 kts 284°
2026-05-05 20:42 36.44333 -86.32749 6033 ft 228 kts 284°
2026-05-05 20:42 36.44940 -86.34560 6013 ft 226 kts 284°
2026-05-05 20:43 36.45543 -86.36354 6013 ft 225 kts 284°
2026-05-05 20:43 36.46153 -86.38143 6008 ft 225 kts 284°
2026-05-05 20:43 36.46766 -86.39924 5973 ft 225 kts 284°
2026-05-05 20:43 36.47388 -86.41719 5908 ft 226 kts 284°
2026-05-05 20:44 36.48010 -86.43504 5881 ft 225 kts 285°
2026-05-05 20:44 36.48635 -86.45286 5863 ft 226 kts 285°
2026-05-05 20:44 36.49288 -86.47074 5807 ft 227 kts 287°
2026-05-05 20:44 36.49773 -86.48909 5542 ft 220 kts 267°
2026-05-05 20:45 36.49430 -86.52600 5065 ft 215 kts 252°
2026-05-05 20:45 36.48999 -86.54363 4808 ft 212 kts 238°
2026-05-05 20:45 36.47951 -86.55517 4525 ft 205 kts 196°
2026-05-05 20:46 36.46537 -86.55615 4329 ft 205 kts 181°
2026-05-05 20:46 36.45112 -86.55626 4130 ft 204 kts 187°
2026-05-05 20:46 36.43748 -86.55963 4009 ft 200 kts 197°
2026-05-05 20:46 36.42418 -86.56535 4015 ft 205 kts 199°
2026-05-05 20:47 36.41072 -86.57095 3998 ft 203 kts 197°
2026-05-05 20:47 36.39718 -86.57604 4007 ft 204 kts 198°
2026-05-05 20:47 36.38368 -86.58162 4006 ft 205 kts 198°
2026-05-05 20:47 36.37004 -86.58694 4001 ft 207 kts 197°
2026-05-05 20:48 36.35626 -86.59229 4003 ft 206 kts 198°
2026-05-05 20:48 36.34257 -86.59790 4004 ft 209 kts 197°
2026-05-05 20:48 36.32889 -86.60310 4004 ft 201 kts 198°
2026-05-05 20:48 36.31680 -86.60806 3994 ft 181 kts 197°
2026-05-05 20:49 36.30529 -86.61250 3958 ft 161 kts 196°
2026-05-05 20:49 36.29507 -86.61659 3772 ft 152 kts 197°
2026-05-05 20:49 36.28523 -86.62046 3594 ft 142 kts 197°
2026-05-05 20:49 36.27599 -86.62414 3415 ft 141 kts 198°
2026-05-05 20:50 36.26671 -86.62780 3245 ft 140 kts 195°
2026-05-05 20:50 36.25722 -86.63140 3054 ft 141 kts 196°
2026-05-05 20:50 36.24808 -86.63517 2882 ft 139 kts 197°
2026-05-05 20:50 36.23892 -86.63876 2699 ft 137 kts 195°
2026-05-05 20:51 36.22988 -86.64229 2507 ft 132 kts 196°
2026-05-05 20:51 36.22127 -86.64566 2335 ft 130 kts 194°
2026-05-05 20:51 36.21250 -86.64920 2166 ft 132 kts 197°
2026-05-05 20:51 36.20364 -86.65284 1988 ft 134 kts 194°
2026-05-05 20:52 36.19552 -86.65568 1832 ft 116 kts 195°
2026-05-05 20:52 36.18802 -86.65888 1689 ft 115 kts 196°
2026-05-05 20:52 36.18062 -86.66173 1567 ft 109 kts 194°
2026-05-05 20:52 36.17295 -86.66482 1463 ft 114 kts 196°
2026-05-05 20:53 36.16537 -86.66793 1226 ft 108 kts 193°
2026-05-05 20:53 36.15802 -86.67078 1045 ft 116 kts 192°
2026-05-05 20:53 36.15005 -86.67375 962 ft 120 kts 197°
2026-05-05 20:53 36.14248 -86.67679 727 ft 109 kts 199°
2026-05-05 20:54 36.13532 -86.67963 584 ft 99 kts 196°
2026-05-05 20:54 36.13025 -86.68157 582 ft 52 kts 197°
2026-05-05 20:54 36.12821 -86.68234 579 ft 16 kts 197°
2026-05-05 20:54 36.12698 -86.68282 578 ft 23 kts 197°
2026-05-05 20:55 36.12548 -86.68341 576 ft 23 kts 197°
2026-05-05 20:55 36.12392 -86.68402 577 ft 24 kts 198°
2026-05-05 20:55 36.12229 -86.68463 573 ft 14 kts 195°
2026-05-05 20:55 36.12151 -86.68425 575 ft 14 kts 111°
2026-05-05 20:56 36.12137 -86.68310 583 ft 14 kts 54°
2026-05-05 20:56 36.12201 -86.68274 580 ft 19 kts 15°
2026-05-05 20:56 36.12402 -86.68202 579 ft 41 kts 17°
2026-05-05 20:56 36.12711 -86.68090 579 ft 48 kts 17°
2026-05-05 20:57 36.12929 -86.68009 578 ft 25 kts 18°
2026-05-05 20:57 36.13109 -86.67936 583 ft 29 kts 17°
2026-05-05 20:57 36.13307 -86.67860 578 ft 30 kts 18°
2026-05-05 20:57 36.13448 -86.67804 579 ft 20 kts 17°
2026-05-05 20:58 36.13529 -86.67739 579 ft 14 kts 93°
2026-05-05 20:58 36.13495 -86.67606 574 ft 19 kts 109°
2026-05-05 20:58 36.13447 -86.67425 571 ft 23 kts 110°
2026-05-05 20:58 36.13401 -86.67250 573 ft 17 kts 108°
2026-05-05 20:59 36.13363 -86.67149 572 ft 11 kts 144°
2026-05-05 20:59 36.13331 -86.67147 572 ft 5 kts 200°
2026-05-05 20:59 36.13320 -86.67152 575 ft 0 kts 203°